Карточка аэропорта UNKL

Внимание!
Информация на этой странице в стадии наполнения.
Если вы не увидели какой-то информации, или заметили неточность - пожалуйста сообщите нам!
Спасибо!
Команда RU-STAFF
Название аэропортаЕмельяново
Название аэропорта (англ.)Yemelyanovo
Превышение942 ft. (287.1 m.)
Координаты56°10.386', 92°29.598'
Высота перехода7500ft
Эшелон переходаFL090
Коды ответчика5320-5377
Зона ОрВДКрасноярск РПИ (UNKL)
Данные METARUNKL 172030Z 00000MPS 2900 BR BKN003 16/16 Q1002 R29/290150 TEMPO 0300 FG VV002 RMK QFE727
Проноз погоды (TAF)UNKL 172000Z 1721/1821 12003MPS 2500 -SHRA BR BKN003 BKN016CB TEMPO 1721/1724 0250 -SHRA FG VV001 BECMG 1800/1803 6000 -SHRA BKN016CB TEMPO 1803/1815 25007G15MPS -TSRA BECMG 1815/1817 25007G15MPS
NOTAMshow/hide NOTAM
AWOS   TABLE

Информация о ВПП

ВПП Длина ВПП (м.) Покрытие Курс ВПП Частота ILS
113700Асфальтобетон109110.5
293700Асфальтобетон289111.7

Диспетчерские позиции

Позывной Наименование органа УВД Частота
UNKL_APPКрасноярск-Подход127.7
UNKL_GNDКрасноярск-Руление121.9
UNKL_R_APPКрасноярск-Круг122.0
UNKL_TWRКрасноярск-Вышка118.3



Спутниковое изображение